Location: Corralito
(10.2667°N, 66.9500°W)
Time: 12:05:36
(UTC+00:00)

Cosmos 2251 Rocket - Pass Details

Date: 11 December 2023
Orbit: 763 x 790 km, 74.0° (Epoch: 03 March)

Event Time Altitude Azimuth Distance (km) Brightness Sun altitude
Rises 22:23:21 0° 338° (NNW) 3,273 6.8 -4.5°
Reaches altitude 10° 22:25:48 10° 333° (NNW) 2,346 6.1 -5.1°
Maximum altitude 22:30:56 50° 259° (WSW) 998 4.7 -6.2°
Drops below altitude 10° 22:36:05 10° 184° (S) 2,343 6.4 -7.4°
Sets 22:38:32 0° 179° (S) 3,270 7.1 -8.0°
